Parsons, KS

12:02 AM CDT on September 25, 2017 (GMT -0500)
Tri-City

Weather History for KPPF - September, 2013

Change the Weather History Date:

Friday, September 27, 2013

  Actual Average Record
Temperature  
Mean Temperature 76 °F -  
Max Temperature 88 °F 77 °F 95 °F (1953)
Min Temperature 66 °F 53 °F 39 °F (1984)
Cooling Degree Days 12    
Growing Degree Days 26 (Base 50)    
Moisture  
Dew Point 59 °F    
Average Humidity 56    
Maximum Humidity 76    
Minimum Humidity 36    
Precipitation  
Precipitation 0.00 in - - ()
Sea Level Pressure  
Sea Level Pressure 29.90 in    
Wind  
Wind Speed 7 mph (SSE)    
Max Wind Speed 15 mph    
Max Gust Speed 25 mph    
Visibility 10 miles    
Events      
Averages and records for this station are not official NWS values.
T = Trace of Precipitation, MM = Missing Value Source: NWS Daily Summary

Daily Weather History Graph

Daily Weather History Graph

Search for Another Location

Airport or City:

Trip Planner

Search our weather history database for the weather conditions in past years. The results will help you decide how hot, cold, wet, or windy it might be!

Date:

Astronomy

Sep. 27, 2013 Rise Set
Actual Time 7:14 AM CDT 7:10 PM CDT
Civil Twilight 6:48 AM CDT 7:36 PM CDT
Nautical Twilight 6:17 AM CDT 8:07 PM CDT
Astronomical Twilight 5:47 AM CDT 8:37 PM CDT
Moon 12:17 AM CDT (9/27) 2:43 PM CDT (9/27)
Length of Visible Light 12h 48m
Length of Day
11h 56m
Last Quarter, 45% of the Moon is Illuminated
Sep 27
Last Quarter
Oct 4
New
Oct 11
First Quarter
Oct 18
Full
Oct 26
Last Quarter

Hourly Weather History & Observations

Time (CDT) Temp. Heat Index Dew Point Humidity Pressure Visibility Wind Dir Wind Speed Gust Speed Precip Events Conditions
12:52 AM 72.0 °F - 57.9 °F 61% 29.88 in 10.0 mi SSE 5.8 mph - N/A   Clear
1:52 AM 70.0 °F - 57.0 °F 63% 29.90 in 10.0 mi SE 4.6 mph - N/A   Clear
2:52 AM 70.0 °F - 57.0 °F 63% 29.90 in 10.0 mi Variable 5.8 mph - N/A   Clear
3:52 AM 69.1 °F - 57.9 °F 68% 29.90 in 10.0 mi SSE 4.6 mph - N/A   Clear
4:52 AM 68.0 °F - 59.0 °F 73% 29.91 in 10.0 mi SE 8.1 mph - N/A   Clear
5:52 AM 66.9 °F - 59.0 °F 76% 29.92 in 10.0 mi SE 5.8 mph - N/A   Clear
6:52 AM 66.9 °F - 59.0 °F 76% 29.94 in 10.0 mi SE 5.8 mph - N/A   Clear
7:52 AM 66.9 °F - 59.0 °F 76% 29.95 in 10.0 mi SE 4.6 mph - N/A   Clear
8:52 AM 71.1 °F - 60.1 °F 68% 29.96 in 10.0 mi SSE 6.9 mph - N/A   Clear
9:52 AM 77.0 °F - 60.1 °F 56% 29.96 in 10.0 mi SSE 10.4 mph 21.9 mph N/A   Clear
10:52 AM 79.0 °F - 61.0 °F 54% 29.96 in 10.0 mi South 13.8 mph 23.0 mph N/A   Clear
11:52 AM 82.9 °F 83.7 °F 62.1 °F 49% 29.94 in 10.0 mi South 11.5 mph 21.9 mph N/A   Clear
12:52 PM 86.0 °F 86.3 °F 62.1 °F 44% 29.93 in 10.0 mi South 9.2 mph 18.4 mph N/A   Clear
1:52 PM 87.1 °F 86.1 °F 57.9 °F 37% 29.90 in 10.0 mi South 12.7 mph 19.6 mph N/A   Clear
2:52 PM 87.1 °F 85.9 °F 57.0 °F 36% 29.88 in 10.0 mi SSE 15.0 mph 25.3 mph N/A   Clear
3:52 PM 87.1 °F 86.1 °F 57.9 °F 37% 29.86 in 10.0 mi South 11.5 mph 20.7 mph N/A   Clear
4:52 PM 86.0 °F 85.4 °F 59.0 °F 40% 29.86 in 10.0 mi SSE 9.2 mph 21.9 mph N/A   Clear
5:52 PM 84.0 °F 83.5 °F 57.9 °F 41% 29.86 in 10.0 mi North - - N/A   Clear
6:52 PM 80.1 °F 80.7 °F 59.0 °F 48% 29.86 in 10.0 mi North - - N/A   Clear
7:52 PM 78.1 °F - 59.0 °F 52% 29.85 in 10.0 mi North - - N/A   Clear
8:52 PM 75.9 °F - 59.0 °F 56% 29.86 in 10.0 mi North - - N/A   Clear
9:52 PM 75.0 °F - 59.0 °F 57% 29.86 in 10.0 mi North - - N/A   Clear
10:52 PM 73.9 °F - 59.0 °F 59% 29.87 in 10.0 mi North - - N/A   Clear
11:52 PM 73.9 °F - 60.1 °F 62% 29.84 in 10.0 mi North - - N/A   Clear